Location: Brunembert
(50.7122°N, 1.8935°E)
Time: 04:31:22
(UTC+00:00)

ALOS 2 - Pass Details

Date: 22 April 2021
Orbit: 630 x 632 km, 97.9° (Epoch: 06 May)

Event Time Altitude Azimuth Distance (km) Brightness Sun altitude
Exits shadow 22:35:38 41° 67° (ENE) 923 3.4 -24.7°
Drops below altitude 10° 22:39:44 10° 358° (N) 2,024 6.1 -24.9°
Sets 22:42:02 0° 352° (N) 2,937 7.3 -25.0°
